N5TM-4 Weather Reports


Display with metric or nautical units.
time (UTC)temp
F
wind
direction
speed
MPH
gust
MPH
rain 1hr
in
rain 24hr
in
rain mn
in
humidity
%
barometer
mb
20260507225009 79 76 3.0 8.0 0.00 0.00 0.00 64 1013.3
20260507224508 79 19 1.0 8.0 0.00 0.00 0.00 64 1013.3
20260507224010 79 34 1.0 8.0 0.00 0.00 0.00 64 1013.1
20260507223510 79 37 1.0 5.0 0.00 0.00 0.00 64 1013.0
20260507223008 78 42 2.0 10.0 0.00 0.00 0.00 64 1013.0
20260507222507 78 89 4.0 10.0 0.00 0.00 0.00 64 1013.0
20260507222007 79 117 3.0 6.0 0.00 0.00 0.00 63 1013.0
20260507221507 79 315 1.0 6.0 0.00 0.00 0.00 64 1013.1
20260507221007 79 332 2.0 11.0 0.00 0.00 0.00 63 1013.1
20260507220506 79 306 4.0 11.0 0.00 0.00 0.00 63 1013.1
20260507220016 79 16 3.0 6.0 0.00 0.00 0.00 62 1013.1
20260507215506 79 116 2.0 6.0 0.00 0.00 0.00 63 1013.3
20260507215006 79 119 1.0 6.0 0.00 0.00 0.00 64 1013.4
20260507214504 79 338 2.0 9.0 0.00 0.00 0.00 64 1013.4
20260507214003 78 348 1.0 9.0 0.00 0.00 0.00 63 1013.5
20260507213504 79 101 3.0 9.0 0.00 0.00 0.00 64 1013.5
20260507213003 79 339 4.0 9.0 0.00 0.00 0.00 63 1013.7
20260507212503 79 77 5.0 9.0 0.00 0.00 0.00 63 1013.7
20260507212002 79 61 1.0 8.0 0.00 0.00 0.00 64 1013.6
20260507211503 79 13 3.0 8.0 0.00 0.00 0.00 63 1013.7
20260507211002 79 70 3.0 8.0 0.00 0.00 0.00 63 1013.7
20260507210501 79 39 4.0 9.0 0.00 0.00 0.00 63 1013.9
20260507210003 79 360 3.0 9.0 0.00 0.00 0.00 63 1014.0
20260507205504 79 319 3.0 8.0 0.00 0.00 0.00 63 1014.0
20260507205001 79 19 2.0 8.0 0.00 0.00 0.00 64 1013.9
20260507204601 78 52 3.0 8.0 0.00 0.00 0.00 64 1014.0
20260507204059 78 344 2.0 8.0 0.00 0.00 0.00 64 1014.0
20260507203558 78 5 3.0 9.0 0.00 0.00 0.00 64 1014.1
20260507203059 78 355 4.0 9.0 0.00 0.00 0.00 64 1014.2
20260507202559 78 5 3.0 9.0 0.00 0.00 0.00 64 1014.2
20260507202056 77 338 4.0 10.0 0.00 0.00 0.00 64 1014.1
20260507201600 77 320 3.0 10.0 0.00 0.00 0.00 65 1014.2
20260507201056 77 94 4.0 11.0 0.00 0.00 0.00 64 1014.2
20260507200555 77 40 5.0 11.0 0.00 0.00 0.00 65 1014.3
20260507200108 77 103 5.0 10.0 0.00 0.00 0.00 64 1014.3
20260507195554 76 296 3.0 10.0 0.00 0.00 0.00 64 1014.3
20260507195054 77 5 5.0 10.0 0.00 0.00 0.00 64 1014.3
20260507194554 76 70 4.0 11.0 0.00 0.00 0.00 65 1014.4
20260507194053 76 327 3.0 11.0 0.00 0.00 0.00 65 1014.5
20260507193551 75 38 4.0 10.0 0.00 0.00 0.00 65 1014.5
20260507193053 75 338 5.0 12.0 0.00 0.00 0.00 66 1014.6
20260507192550 75 29 7.0 12.0 0.00 0.00 0.00 66 1014.8
20260507192051 75 314 5.0 10.0 0.00 0.00 0.00 68 1015.0
20260507191554 74 41 3.0 10.0 0.00 0.00 0.00 68 1015.1
20260507191048 74 5 3.0 10.0 0.00 0.00 0.00 68 1015.2
20260507190548 74 351 5.0 10.0 0.00 0.00 0.00 68 1015.3
20260507190053 73 355 2.0 10.0 0.00 0.00 0.00 69 1015.4
20260507185547 73 14 5.0 10.0 0.00 0.00 0.00 70 1015.6
20260507185047 72 22 1.0 8.0 0.00 0.00 0.00 70 1015.6
20260507184550 72 5 4.0 10.0 0.00 0.00 0.00 71 1015.6
20260507184047 71 338 3.0 12.0 0.00 0.00 0.00 70 1015.5
20260507183546 72 5 7.0 13.0 0.00 0.00 0.00 69 1015.6
20260507183046 72 313 8.0 13.0 0.00 0.00 0.00 68 1015.7
20260507182546 73 334 6.0 11.0 0.00 0.00 0.00 67 1015.7
20260507182045 73 325 6.0 12.0 0.00 0.00 0.00 67 1015.6
20260507181552 73 287 6.0 12.0 0.00 0.00 0.00 67 1015.6
20260507181046 73 343 5.0 13.0 0.00 0.00 0.00 67 1015.7
20260507180546 73 24 5.0 15.0 0.00 0.00 0.00 67 1015.7
20260507180045 74 325 6.0 15.0 0.00 0.00 0.00 66 1015.9
20260507175545 74 339 5.0 10.0 0.00 0.00 0.00 65 1015.9
20260507175044 74 350 6.0 11.0 0.00 0.00 0.00 67 1016.0
20260507174547 72 311 3.0 11.0 0.00 0.00 0.00 70 1016.0
20260507174042 72 50 4.0 10.0 0.00 0.00 0.00 69 1015.9
20260507173542 72 360 4.0 10.0 0.00 0.00 0.00 70 1016.0
20260507173040 70 328 5.0 10.0 0.00 0.00 0.00 72 1016.1
20260507172539 70 13 3.0 9.0 0.00 0.00 0.00 72 1016.3
20260507172037 70 27 3.0 12.0 0.00 0.00 0.00 72 1016.4
20260507171538 70 28 5.0 12.0 0.00 0.00 0.00 72 1016.4
20260507171036 69 337 2.0 10.0 0.00 0.00 0.00 74 1016.4
20260507170538 69 9 2.0 10.0 0.00 0.00 0.00 74 1016.6
20260507170044 68 30 2.0 9.0 0.00 0.00 0.00 74 1016.5
20260507165536 68 355 2.0 6.0 0.00 0.00 0.00 74 1016.6
20260507165035 68 348 3.0 6.0 0.00 0.00 0.00 74 1016.5
20260507164535 68 340 4.0 9.0 0.00 0.00 0.00 75 1016.5
20260507164036 68 350 4.0 10.0 0.00 0.00 0.00 75 1016.5
20260507163533 67 328 3.0 8.0 0.00 0.00 0.00 76 1016.4
20260507163033 67 53 4.0 8.0 0.00 0.00 0.00 75 1016.3
20260507162533 67 58 3.0 6.0 0.00 0.00 0.00 76 1016.2
20260507162033 67 338 2.0 10.0 0.00 0.00 0.00 76 1016.1
20260507161532 67 71 3.0 10.0 0.00 0.00 0.00 75 1016.2
20260507161034 67 340 3.0 12.0 0.00 0.00 0.00 76 1016.0
20260507160534 67 78 5.0 12.0 0.00 0.00 0.00 76 1015.9
20260507160034 67 5 4.0 11.0 0.00 0.00 0.00 76 1015.8
20260507155535 66 9 2.0 13.0 0.00 0.00 0.00 77 1015.9
20260507155032 66 93 4.0 13.0 0.00 0.00 0.00 77 1016.0
20260507154531 66 48 5.0 11.0 0.00 0.00 0.00 78 1016.0
20260507154031 66 360 2.0 11.0 0.00 0.00 0.00 78 1016.0
20260507153530 65 5 3.0 13.0 0.00 0.00 0.00 79 1016.0
20260507153031 65 22 5.0 13.0 0.00 0.00 0.00 78 1016.0
20260507152530 65 15 2.0 11.0 0.00 0.00 0.00 79 1016.1
20260507152034 65 11 3.0 9.0 0.00 0.00 0.00 79 1016.3
20260507151530 65 321 3.0 9.0 0.00 0.00 0.00 79 1016.3
20260507151029 65 23 4.0 9.0 0.00 0.00 0.00 80 1016.3
20260507150529 65 18 4.0 9.0 0.00 0.00 0.00 80 1016.4
20260507150033 64 11 3.0 9.0 0.00 0.00 0.00 80 1016.4
20260507145528 64 40 3.0 12.0 0.00 0.00 0.00 80 1016.4
20260507145031 65 360 6.0 12.0 0.00 0.00 0.00 79 1016.4
20260507144529 65 333 5.0 12.0 0.00 0.00 0.00 79 1016.4
20260507144027 65 346 4.0 12.0 0.00 0.00 0.00 80 1016.3
20260507143530 64 29 5.0 11.0 0.00 0.00 0.00 80 1016.2
20260507143028 64 20 5.0 11.0 0.00 0.00 0.00 82 1016.0
20260507142525 64 321 6.0 12.0 0.00 0.00 0.00 83 1015.7
20260507142025 64 350 5.0 12.0 0.00 0.00 0.00 83 1015.5
20260507141524 64 355 6.0 11.0 0.00 0.00 0.00 83 1015.8
20260507141023 64 360 4.0 10.0 0.00 0.00 0.00 83 1015.7
20260507140523 64 328 2.0 10.0 0.00 0.00 0.00 83 1015.4
20260507140022 64 297 5.0 13.0 0.00 0.00 0.00 83 1015.3
20260507135526 64 355 4.0 13.0 0.00 0.00 0.00 82 1015.2
20260507135021 64 37 2.0 11.0 0.00 0.00 0.00 82 1015.2
20260507134521 64 5 3.0 13.0 0.00 0.00 0.00 82 1015.2
20260507134022 64 9 6.0 13.0 0.00 0.00 0.00 82 1015.5
20260507133519 64 24 3.0 14.0 0.00 0.00 0.00 82 1015.5
20260507133020 64 21 7.0 16.0 0.00 0.00 0.00 82 1015.7
20260507132518 64 13 7.0 18.0 0.00 0.00 0.00 82 1015.9
20260507132018 64 290 7.0 18.0 0.00 0.00 0.00 82 1016.1
20260507131526 64 329 8.0 15.0 0.00 0.00 0.00 81 1016.0
20260507131016 65 315 5.0 12.0 0.00 0.00 0.00 81 1015.9
20260507130517 65 11 5.0 15.0 0.00 0.00 0.00 82 1016.0
20260507130015 65 348 7.0 15.0 0.00 0.00 0.00 82 1016.1
20260507125514 65 70 4.0 11.0 0.00 0.00 0.00 83 1015.9
20260507125013 65 5 7.0 11.0 0.00 0.00 0.00 83 1016.0
20260507124513 65 15 3.0 9.0 0.00 0.00 0.00 83 1015.8
20260507124016 65 355 4.0 10.0 0.00 0.00 0.00 83 1015.8
20260507123511 65 332 3.0 10.0 0.00 0.00 0.00 83 1015.7
20260507123010 65 333 3.0 10.0 0.00 0.00 0.00 83 1015.5
20260507122508 66 327 6.0 11.0 0.00 0.00 0.00 83 1015.3
20260507122010 66 360 5.0 11.0 0.00 0.00 0.00 83 1015.3
20260507121508 66 13 4.0 10.0 0.00 0.00 0.00 83 1015.1
20260507121006 66 317 2.0 10.0 0.00 0.00 0.00 82 1015.0
20260507120505 66 33 4.0 11.0 0.00 0.00 0.00 82 1014.9
20260507120017 66 23 5.0 11.0 0.00 0.00 0.00 82 1014.7
20260507115505 66 350 5.0 10.0 0.00 0.00 0.00 82 1014.7
20260507115003 66 19 2.0 10.0 0.00 0.00 0.00 82 1014.9
20260507114503 66 303 3.0 11.0 0.00 0.00 0.00 82 1014.7
20260507114001 66 360 4.0 11.0 0.00 0.00 0.00 82 1014.3
20260507113500 66 333 3.0 9.0 0.00 0.00 0.00 82 1014.2
20260507113000 66 329 2.0 9.0 0.00 0.00 0.00 82 1014.3
20260507112602 66 14 3.0 9.0 0.00 0.00 0.00 82 1014.2
20260507112103 66 360 3.0 8.0 0.00 0.00 0.00 82 1014.1
20260507111607 66 355 3.0 6.0 0.00 0.00 0.00 82 1014.0
20260507111058 66 30 2.0 9.0 0.00 0.00 0.00 82 1014.0
20260507110559 66 355 4.0 9.0 0.00 0.00 0.00 82 1013.9
20260507110110 66 349 2.0 6.0 0.00 0.00 0.00 82 1014.0
20260507105557 66 338 3.0 6.0 0.00 0.00 0.00 82 1014.0
20260507105057 66 348 3.0 8.0 0.00 0.00 0.00 82 1013.7
20260507104557 66 5 3.0 8.0 0.00 0.00 0.00 82 1013.8
20260507104056 66 5 1.0 8.0 0.00 0.00 0.00 82 1013.8
20260507103556 66 25 4.0 8.0 0.00 0.00 0.00 82 1013.8
20260507103056 66 22 2.0 6.0 0.00 0.00 0.00 82 1013.8
20260507102557 66 325 2.0 6.0 0.00 0.00 0.00 82 1013.9
20260507102057 66 360 2.0 9.0 0.00 0.00 0.00 82 1013.7
20260507101604 66 360 3.0 9.0 0.00 0.00 0.00 82 1013.9
20260507101054 66 360 3.0 9.0 0.00 0.00 0.00 82 1013.5
20260507100554 66 98 3.0 10.0 0.00 0.00 0.00 82 1013.5
20260507100054 66 25 3.0 10.0 0.00 0.00 0.00 82 1013.5
20260507095555 66 360 4.0 8.0 0.00 0.00 0.00 82 1013.5
20260507095056 66 55 1.0 8.0 0.00 0.00 0.00 82 1013.5
20260507094555 66 339 2.0 9.0 0.00 0.00 0.00 82 1013.3
20260507094053 66 348 3.0 10.0 0.00 0.00 0.00 82 1013.4
20260507093552 66 32 3.0 10.0 0.00 0.00 0.00 82 1013.2
20260507093056 66 336 3.0 9.0 0.00 0.00 0.00 82 1013.0
20260507092552 66 348 2.0 9.0 0.00 0.00 0.00 82 1012.8
20260507092052 66 5 2.0 10.0 0.00 0.00 0.00 82 1012.8
20260507091555 66 34 3.0 11.0 0.00 0.00 0.00 82 1012.7
20260507091051 66 355 5.0 11.0 0.00 0.00 0.00 82 1012.9
20260507090551 66 11 3.0 10.0 0.00 0.00 0.00 82 1012.9
20260507090055 66 5 4.0 10.0 0.00 0.00 0.00 81 1012.8
20260507085550 66 13 4.0 10.0 0.00 0.00 0.00 81 1012.9
20260507085050 66 22 3.0 10.0 0.00 0.00 0.00 81 1013.1
20260507084553 66 331 3.0 10.0 0.00 0.00 0.00 81 1013.1
20260507084052 66 5 4.0 10.0 0.00 0.00 0.00 81 1013.2
20260507083549 66 355 3.0 10.0 0.00 0.00 0.00 81 1013.3
20260507083049 66 338 3.0 10.0 0.00 0.00 0.00 81 1013.4
20260507082548 66 333 3.0 10.0 0.00 0.00 0.00 81 1013.3
20260507082051 66 5 4.0 12.0 0.00 0.00 0.00 81 1013.2
20260507081550 66 355 6.0 12.0 0.00 0.00 0.00 80 1013.1
20260507081047 66 360 4.0 10.0 0.00 0.00 0.00 80 1013.1
20260507080550 66 334 3.0 10.0 0.00 0.00 0.00 80 1013.1
20260507080049 66 340 4.0 12.0 0.00 0.00 0.00 80 1013.0
20260507075546 66 53 6.0 12.0 0.00 0.00 0.00 80 1013.2
20260507075046 67 311 2.0 8.0 0.00 0.00 0.00 80 1013.1
20260507074559 67 87 3.0 9.0 0.00 0.00 0.00 80 1013.0
20260507074045 67 5 3.0 11.0 0.00 0.00 0.00 80 1013.2
20260507073547 67 346 5.0 14.0 0.00 0.00 0.00 80 1013.2
20260507073044 67 317 6.0 14.0 0.00 0.00 0.00 79 1013.4
20260507072544 67 355 2.0 10.0 0.00 0.00 0.00 80 1013.3
20260507072043 67 68 5.0 13.0 0.00 0.00 0.00 79 1013.4
20260507071542 67 32 6.0 13.0 0.00 0.00 0.00 79 1013.3
20260507071042 67 5 3.0 14.0 0.00 0.00 0.00 79 1013.4
20260507070541 67 355 8.0 14.0 0.00 0.00 0.00 79 1013.6
20260507070041 67 286 5.0 14.0 0.00 0.00 0.00 79 1013.7
20260507065541 67 351 5.0 14.0 0.00 0.00 0.00 79 1013.6
20260507065039 67 355 4.0 12.0 0.00 0.00 0.00 79 1013.6
20260507064538 67 336 5.0 12.0 0.00 0.00 0.00 79 1013.5
20260507064039 67 38 4.0 10.0 0.00 0.00 0.00 79 1013.7
20260507063536 67 317 3.0 13.0 0.00 0.00 0.00 79 1013.6
20260507063035 68 360 7.0 13.0 0.00 0.00 0.00 78 1013.4
20260507062534 68 40 2.0 11.0 0.00 0.00 0.00 78 1013.3
20260507062036 68 17 5.0 13.0 0.00 0.00 0.00 78 1013.5
20260507061534 68 355 6.0 13.0 0.00 0.00 0.00 78 1013.6
20260507061031 68 12 3.0 8.0 0.00 0.00 0.00 79 1013.3
20260507060531 68 5 3.0 10.0 0.00 0.00 0.00 79 1013.2
20260507060030 68 277 4.0 10.0 0.00 0.00 0.00 79 1013.2
20260507055530 68 15 4.0 10.0 0.00 0.00 0.00 79 1013.0
20260507055032 69 339 4.0 10.0 0.00 0.00 0.00 79 1013.0
20260507054530 69 344 4.0 10.0 0.00 0.00 0.00 78 1013.1
20260507054029 69 11 4.0 9.0 0.00 0.00 0.00 79 1013.2
20260507053530 69 298 4.0 9.0 0.00 0.00 0.00 78 1013.1
20260507053027 69 348 3.0 12.0 0.00 0.00 0.00 78 1012.9
20260507052526 69 5 4.0 14.0 0.00 0.00 0.00 78 1012.8
20260507052026 69 333 4.0 14.0 0.00 0.00 0.00 78 1012.9
20260507051525 69 325 5.0 12.0 0.00 0.00 0.00 78 1012.8
20260507051023 69 25 3.0 12.0 0.00 0.00 0.00 78 1012.9
20260507050522 70 355 3.0 8.0 0.00 0.00 0.00 78 1013.0
20260507050026 70 12 3.0 9.0 0.00 0.00 0.00 79 1013.0
20260507045521 70 355 4.0 9.0 0.00 0.00 0.00 78 1013.0
20260507045021 70 9 4.0 9.0 0.00 0.00 0.00 78 1013.0
20260507044520 70 309 3.0 10.0 0.00 0.00 0.00 78 1013.0
20260507044019 70 350 4.0 11.0 0.00 0.00 0.00 78 1012.9
20260507043519 70 329 4.0 11.0 0.00 0.00 0.00 77 1013.0
20260507043019 70 19 4.0 8.0 0.00 0.00 0.00 77 1013.0
20260507042518 70 313 4.0 10.0 0.00 0.00 0.00 77 1013.0
20260507042018 70 360 4.0 12.0 0.00 0.00 0.00 77 1013.0
20260507041517 70 331 3.0 13.0 0.00 0.00 0.00 76 1012.9
20260507041016 71 360 5.0 11.0 0.00 0.00 0.00 76 1012.8
20260507040517 71 300 2.0 9.0 0.00 0.00 0.00 77 1012.8
20260507040016 71 32 4.0 10.0 0.00 0.00 0.00 77 1013.0
20260507035514 71 360 4.0 10.0 0.00 0.00 0.00 76 1013.0
20260507035014 71 322 3.0 10.0 0.00 0.00 0.00 76 1013.1
20260507034513 71 11 3.0 12.0 0.00 0.00 0.00 76 1012.9
20260507034011 72 348 4.0 12.0 0.00 0.00 0.00 76 1012.9
20260507033510 72 325 4.0 11.0 0.00 0.00 0.00 76 1012.8
20260507033017 72 5 4.0 9.0 0.00 0.00 0.00 76 1012.6
20260507032509 72 335 4.0 13.0 0.00 0.00 0.00 76 1012.5
20260507032011 72 313 5.0 15.0 0.00 0.00 0.00 75 1012.4
20260507031507 73 329 6.0 15.0 0.00 0.00 0.00 75 1012.3
20260507031008 73 338 5.0 13.0 0.00 0.00 0.00 76 1012.2
20260507030506 73 345 6.0 13.0 0.00 0.00 0.00 76 1012.0
20260507030005 73 355 4.0 13.0 0.00 0.00 0.00 75 1011.9
20260507025503 73 345 6.0 13.0 0.00 0.00 0.00 76 1011.9
20260507025002 73 300 5.0 11.0 0.00 0.00 0.00 76 1011.8
20260507024502 73 22 4.0 13.0 0.00 0.00 0.00 76 1011.8
20260507024059 73 308 5.0 13.0 0.00 0.00 0.00 76 1011.8
20260507023558 74 325 4.0 11.0 0.00 0.00 0.00 76 1011.7
20260507023105 74 263 5.0 11.0 0.00 0.00 0.00 76 1011.4
20260507022556 74 280 4.0 10.0 0.00 0.00 0.00 76 1011.3
20260507022056 74 321 4.0 10.0 0.00 0.00 0.00 76 1011.2
20260507021554 74 302 2.0 8.0 0.00 0.00 0.00 76 1011.0
20260507021057 74 339 2.0 11.0 0.00 0.00 0.00 76 1010.9
20260507020554 74 338 5.0 12.0 0.00 0.00 0.00 76 1010.9
20260507020056 74 355 4.0 14.0 0.00 0.00 0.00 76 1010.8
20260507015553 75 318 4.0 14.0 0.00 0.00 0.00 75 1010.8
20260507015053 75 297 4.0 11.0 0.00 0.00 0.00 75 1010.8
20260507014601 75 315 4.0 11.0 0.00 0.00 0.00 75 1010.6
20260507014052 75 323 5.0 11.0 0.00 0.00 0.00 75 1010.6
20260507013551 75 348 4.0 10.0 0.00 0.00 0.00 75 1010.5
20260507013051 76 319 4.0 10.0 0.00 0.00 0.00 75 1010.5
20260507012551 76 303 4.0 10.0 0.00 0.00 0.00 75 1010.3
20260507012051 76 306 5.0 12.0 0.00 0.00 0.00 75 1010.2
20260507011551 77 5 3.0 12.0 0.00 0.00 0.00 75 1010.2
20260507011049 77 302 5.0 12.0 0.00 0.00 0.00 75 1010.0
20260507010550 77 345 4.0 11.0 0.00 0.00 0.00 76 1009.9
20260507010050 78 281 2.0 10.0 0.00 0.00 0.00 76 1009.9
20260507005550 78 321 5.0 10.0 0.00 0.00 0.00 75 1009.8
20260507005049 78 289 4.0 11.0 0.00 0.00 0.00 75 1009.8
20260507004550 79 317 6.0 11.0 0.00 0.00 0.00 74 1009.7
20260507004048 79 317 3.0 13.0 0.00 0.00 0.00 74 1009.4
20260507003548 80 313 7.0 13.0 0.00 0.00 0.00 73 1009.3
20260507003051 81 320 5.0 15.0 0.00 0.00 0.00 73 1009.2
20260507002548 82 339 6.0 15.0 0.00 0.00 0.00 73 1009.0
20260507002050 83 347 3.0 9.0 0.00 0.00 0.00 75 1009.0
20260507001548 83 161 2.0 7.0 0.00 0.00 0.00 78 1008.8
20260507001047 83 168 2.0 7.0 0.00 0.00 0.00 79 1008.6
20260507000550 83 163 3.0 7.0 0.00 0.00 0.00 78 1008.6
20260507000047 84 142 3.0 8.0 0.00 0.00 0.00 78 1008.5
20260506235547 84 171 3.0 8.0 0.00 0.00 0.00 76 1008.7
20260506235050 85 169 3.0 9.0 0.00 0.00 0.00 75 1008.6
20260506234547 86 158 4.0 9.0 0.00 0.00 0.00 72 1008.5
20260506234047 88 202 0.0 3.0 0.00 0.00 0.00 68 1008.4
20260506233547 88 200 0.0 2.0 0.00 0.00 0.00 69 1008.4
20260506233100 88 200 0.0 3.0 0.00 0.00 0.00 68 1008.4
20260506232546 88 153 0.0 3.0 0.00 0.00 0.00 68 1008.3
20260506232046 88 153 0.0 3.0 0.00 0.00 0.00 69 1008.2
20260506231546 88 205 0.0 5.0 0.00 0.00 0.00 68 1008.3
20260506231046 88 205 1.0 5.0 0.00 0.00 0.00 68 1008.2
20260506230545 88 152 2.0 6.0 0.00 0.00 0.00 68 1008.2
20260506230046 88 141 1.0 6.0 0.00 0.00 0.00 67 1008.1
20260506225545 88 166 1.0 5.0 0.00 0.00 0.00 66 1008.1